Regional Weather Roundup
Issued by NWS

Home | Current Version | Previous Version | Text Only | Print | Product List | Glossary Off
Versions: 1 2 3 4 5 6 7 8 9 10 11 12 13 14 15 16 17 18 19 20 21 22 23 24 25 26 27 28 29 30 31 32 33 34 35 36 37 38 39 40 41 42 43 44 45 46 47 48 49 50

000
ASUS43 KLSX 011707
RWRMO

WEATHER SUMMARY FOR MISSOURI
NATIONAL WEATHER SERVICE SPRINGFIELD MO
1100 AM CST SUN MAR 01 2015

NOTE: "FAIR" INDICATES FEW OR NO CLOUDS BELOW 12,000 FEET WITH NO
       SIGNIFICANT WEATHER AND/OR OBSTRUCTIONS TO VISIBILITY.
       CURRENT SKY AND/OR WEATHER CONDITIONS ARE NOT AVAILABLE FOR
       CHILLICOTHE AND FARMINGTON.

MOZ001>031-035>038-043-044-053-054-011800-
...NORTHERN AND WESTERN MISSOURI...

CITY           SKY/WX    TMP DP  RH WIND       PRES   REMARKS
KANSAS CTY INT PTSUNNY   29  22  75 NW5       30.39S WCI  24
KANSAS C DTWN  PTSUNNY   29  21  72 CALM      30.41R
LEE`S SUMMIT   PTSUNNY   28  19  69 N5        30.41R WCI  23
ST JOSEPH      MOSUNNY   27  20  75 NW6       30.43R WCI  20
CHILLICOTHE      N/A     29  20  69 CALM      30.42S
KIRKSVILLE     CLOUDY    25  18  74 CALM      30.40R

$$
MOZ066>068-077>081-088>096-101>105-011800-
...SOUTHWEST MISSOURI...

CITY           SKY/WX    TMP DP  RH WIND       PRES   REMARKS
SPRINGFIELD    CLOUDY    30  26  85 N6        30.37R WCI  24
JOPLIN         CLOUDY    28  25  88 N7        30.41R WCI  21

$$
MOZ032>034-039>042-045>050-055>058-069>072-011800-
...CENTRAL MISSOURI...

CITY           SKY/WX    TMP DP  RH WIND       PRES   REMARKS
COLUMBIA       CLOUDY    27  22  81 N6        30.38S WCI  20
JEFFERSON CITY CLOUDY    28  24  85 W5        30.40F WCI  23
ROLLA          CLOUDY    27  25  92 W3        30.35S FOG
SEDALIA        CLOUDY    28  21  75 N6        30.40S WCI  22
WARRENSBURG    PTSUNNY   28  21  74 CALM      30.42R
OSAGE BEACH    CLOUDY    28  25  86 CALM      30.38S

$$
MOZ051-052-059>065-011800-
...EAST CENTRAL MISSOURI...

CITY           SKY/WX    TMP DP  RH WIND       PRES   REMARKS
ST LOUIS INTL  FRZ DRZL  30  25  80 W6        30.39R WCI  24
SPIRIT OF STL  CLOUDY    28  26  92 CALM      30.39F FOG
ST CHARLES     LGT SNOW  27  25  92 W5        30.40S FOG     WCI  22

$$
MOZ072>076-082>087-097>100-106>115-011800-
...SOUTH CENTRAL AND SOUTHEAST MISSOURI...

CITY           SKY/WX    TMP DP  RH WIND       PRES   REMARKS
CAPE GIRARDEAU CLOUDY    34  31  88 NW3       30.38R
FARMINGTON     CLOUDY    30  27  86 CALM      30.38F
POPLAR BLUFF   CLOUDY    36  30  79 NW3       30.37F
WEST PLAINS    CLOUDY    33  30  88 NW5       30.36R WCI  29

$$


USA.gov is the U.S. government's official web portal to all federal, state and local government web resources and services.